Regional Weather Roundup
Issued by NWS

Home | Current Version | Previous Version | Text Only | Print | Product List | Glossary Off
Versions: 1 2 3 4 5 6 7 8 9 10 11 12 13 14 15 16 17 18 19 20 21 22 23 24 25 26 27 28

000
ASUS45 KBOU 191710
RWRCO

WEATHER ROUNDUP FOR COLORADO
NATIONAL WEATHER SERVICE DENVER/BOULDER CO
1100 AM MDT SAT MAY 19 2018

NOTE: "FAIR" INDICATES FEW OR NO CLOUDS BELOW 12000 FEET WITH NO
SIGNIFICANT WEATHER AND/OR OBSTRUCTIONS TO VISIBILITY.

COZ001>005-013-030-031-191800-
...NORTHWEST COLORADO...

CITY           SKY/WX    TMP DP  RH WIND       PRES   REMARKS
CRAIG          FAIR      56  43  61 W6        30.08S
HAYDEN         FAIR      51  40  65 W3        30.10S
MEEKER         PTSUNNY   57  41  55 SW9       30.07S
RANGELY        FAIR      64  41  42 E9        30.03F
RABBIT EARS PA PTSUNNY   37  34  87 E6        30.22R
STEAMBOAT SPGS FAIR      52  40  64 W3        30.08S
WALDEN         CLOUDY    50  36  57 NE10      30.16R
$$

COZ006>008-011-191800-
...WEST CENTRAL VALLEYS...

CITY           SKY/WX    TMP DP  RH WIND       PRES   REMARKS
GRAND JUNCTION FAIR      70  39  32 VRB5      29.95F
MONTROSE       FAIR      66  28  24 MISG      29.99F
EAGLE          FAIR      59  33  37 CALM      30.05F
RIFLE          FAIR      66  38  35 CALM      29.99F
DELTA          FAIR      71  28  20 NE5       29.96F
NUCLA          FAIR      68  27  21 N7        30.04F
$$

COZ017>023-064>068-191800-
...SOUTHWEST COLORADO...

CITY           SKY/WX    TMP DP  RH WIND       PRES   REMARKS
DURANGO        FAIR      68  24  19 SW10      30.04S
CORTEZ         FAIR      70  28  21 VRB5      30.02S
PAGOSA SPRINGS FAIR      64  14  14 SW7       30.10S
TELLURIDE      FAIR      58  22  24 NW10G18   30.15S
WOLF CREEK PAS FAIR      43  18  36 S20G28    30.32S
$$

COZ009-010-012-014-032>034-037-058>063-191800-
...CENTRAL COLORADO...

CITY           SKY/WX    TMP DP  RH WIND       PRES   REMARKS
ASPEN          FAIR      63  19  18 N8        30.03F
BUENA VISTA    FAIR      55  36  47 S5        30.09F
COPPER MTN     PTSUNNY   45  18  33 NW7       30.26S
BERTHOUD PASS  HAZE      28  18  64 SE6       30.29R VSB<1/4 WCI  22
COTTONWOOD PAS FAIR      54  41  62 SE7       30.17F
GUNNISON       FAIR      59  25  27 SW6       30.06F
GRANBY         PTSUNNY   47  36  64 CALM      30.13S
KREMMLING      FAIR      55  37  50 CALM      30.11S
LEADVILLE      FAIR      49  28  44 VRB3      30.14F
MONARCH PASS   FAIR      41  14  33 MISG      30.36F
SALIDA         FAIR      59  38  44 SE13      30.15F
SUNLIGHT       FAIR      41  30  65 NW7       30.24S
WILKERSON PASS PTSUNNY   36  34  93 CALM      30.28R
$$

COZ069>075-191800-
...SAN LUIS VALLEY/SANGRE DE CRISTO MOUNTAINS...

CITY           SKY/WX    TMP DP  RH WIND       PRES   REMARKS
ALAMOSA        FAIR      63  30  28 E9G18     30.07S
DEL NORTE      FAIR      60  29  31 SE7       30.09S
LA VETA PASS   PTSUNNY   45  37  76 N6        30.32S
SAGUACHE       NOT AVBL
$$

COZ035-036-038>040-191800-
...NORTHERN COLORADO FRONT RANGE...

CITY           SKY/WX    TMP DP  RH WIND       PRES   REMARKS
DENVER INTL AP CLOUDY    47  42  83 N21       30.12R
AURORA         PTSUNNY   47  46  97 N18       30.13R
FRONT RANGE AP NOT AVBL
ERIE MUNI ARPT CLOUDY    49  44  83 NE14G21   30.18R
BOULDER MUN AP CLOUDY    48  45  87 N16       30.13R
CENTENNIAL     LGT RAIN  46  45  96 N14       30.12R FOG
BROOMFIELD     CLOUDY    48  45  87 N20G25    30.14R
FORT COLLINS   LGT RAIN  48  44  86 N21G26    30.14R
LONGMONT       CLOUDY    52  45  76 NE13G24   30.15R
$$

COZ041-046-047-076>085-087-088-191800-
...PIKES PEAK/PALMER DIVIDE AND SOUTHERN FOOTHILLS...

CITY           SKY/WX    TMP DP  RH WIND       PRES   REMARKS
COLO. SPRINGS  CLOUDY    55  43  63 N12       30.09R
A. F. ACADEMY  CLOUDY    55  43  64 N16G23    30.09R
SCHRIEVER AFB  NOT AVBL
CHEYENNE MTN   CLOUDY    49  41  75 NE5       30.06S
ELLICOTT         N/A    N/A N/A N/A N16       30.07S
FALCON         PTSUNNY   55  42  61 N15G25    30.11R
FORT CARSON    CLOUDY    55  43  65 S6        30.07S
LIMON          CLOUDY    51  44  77 N24G33    30.07R
MONUMENT HILL  CLOUDY    45  43  93 NW13G20   30.14S
CANON CITY     CLOUDY    59  48  67 E8        30.06S
WALSENBURG     CLOUDY    63  45  51 SE8       30.08S
TRINIDAD       CLOUDY    58  46  64 E5        30.08S
$$

COZ042>045-048>051-090-091-191800-
...NORTHEAST COLORADO...

CITY           SKY/WX    TMP DP  RH WIND       PRES   REMARKS
GREELEY ARPT   LGT RAIN  47  43  86 N13       30.13R
AKRON          RAIN      44  43  96 N24G31    30.06R FOG
BURLINGTON     PTSUNNY   58  45  62 W25G39    29.98S
WRAY           LGT RAIN  46  46 100 NE24G35   29.96R
YUMA           LGT RAIN  45  45 100 N21G29    30.01R
STERLING       RAIN      45  45 100 N14G22    30.05R
HOLYOKE        RAIN      46  45  93 NE25G32   30.00R
FORT MORGAN    MIX PCPN  46  43  91 N16       30.10R
$$

COZ086-089-092>099-191800-
...SOUTHEAST COLORADO...

CITY           SKY/WX    TMP DP  RH WIND       PRES   REMARKS
PUEBLO         CLOUDY    61  46  57 VRB6      30.04S
LA JUNTA       FAIR      62  49  62 NE5       30.04S
LAMAR          FAIR      60  49  66 N5        30.00F
SPRINGFIELD      N/A     62  52  69 NW12      30.02S
$$




USA.gov is the U.S. government's official web portal to all federal, state and local government web resources and services.